ROMMA est une association bénévole à but non lucratif. Votre soutien est indispensable : ADHERER à ROMMA ou FAIRE un DON

Chambon - (38, Isère)

Oisans (2460 m)   Longitude: 06° 10' 42" E   Latitude: 45° 01' 32" N Station partenaire n°803
 

Détail journalier du     <<     >>

Température Humidité Vent Dir Rafale Dir. rafale Neige 1 Neige 2
Heure (°C) (%) (km/h) (km/h) (cm) (cm)
01:00 -5.99521SSO38SO0119
02:00 -5.19521SSO40SO0119
03:00 -4.89420SO36SO0119
04:00 -4.39326SSO43SSO0119
05:00 -4.39026SSO43SSO0118
06:00 -4.09237SSO86SO0118
07:00 -4.69945SO78SO0118
08:00 -4.69940SO78SO0118
09:00 -4.99822SO43OSO0118
10:00 -5.29815SO27SO0117
11:00 -5.29819SO35O0118
12:00 -5.39817OSO32OSO0118
13:00 -5.39711SO22SO0118
14:00 -5.29815SO32SO0118
15:00 -5.49810SSO27SSO0117
16:00 -5.6989SSO17SSO0117
17:00 -5.79811SO19OSO0117
18:00 -5.69812SO24SO0118
19:00 -5.99810SO24SO0119
20:00 -6.2984S16SO0119
21:00 -6.1986S13SO0118
22:00 -6.2985SO15SO0119
23:00 -6.7986SSO12SSO0119
minuit -7.3983SSE10SSO0119

Graphique du 29-11-2019

 

Serveur OMMA